Regional Weather Roundup
Issued by NWS Nashville, TN

Home | Current Version | Previous Version | Text Only | Print | Product List | Glossary On
Versions: 1 2 3 4 5 6 7 8 9 10 11 12 13 14 15 16 17 18 19 20 21 22 23 24 25 26 27 28 29 30 31 32 33 34 35 36 37 38 39 40 41 42 43 44 45 46 47 48 49 50
000
ASUS44 KOHX 301710
RWROHX
MIDDLE TENNESSEE HOURLY WEATHER ROUNDUP
NATIONAL WEATHER SERVICE NASHVILLE TN
1200 PM CDT SUN APR 30 2017

NOTE: "FAIR" INDICATES FEW OR NO CLOUDS BELOW 12,000 FEET WITH
NO SIGNIFICANT WEATHER AND/OR OBSTRUCTIONS TO VISIBILITY.

* THESE REPORTS ARE NOT UNDER NWS QUALITY CONTROL AND MAY NOT
  REPORT WEATHER SUCH AS PRECIPITATION AND FOG.


TNZ005>011-023>034-057-059-062>066-078-080-301800
...NORTHERN MIDDLE TENNESSEE...

CITY           SKY/WX    TMP DP  RH WIND       PRES   REMARKS
CLARKSVILLE    CLOUDY    79  64  60 S21G35    29.86F
CROSSVILLE     PTSUNNY   73  64  73 S13G25    30.06F
GALLATIN       PTSUNNY   81  66  61 S9G22     29.96S
DICKSON        CLOUDY    76  65  68 S10G24    29.89F
LEBANON        CLOUDY    80  65  60 S18       29.92F
NASHVILLE      CLOUDY    81  65  58 S25G33    29.94S
PORTLAND       SUNNY     81  66  61 S23G38    29.92S
SMYRNA         PTSUNNY   80  67  64 S17G25    29.94F
SPARTA         CLOUDY    79  66  65 S16G24    29.98F
SPRINGFIELD    CLOUDY    79  66  65 S15G22    29.90S
$$
TNZ056-058-060-061-075>077-079-093>097-301800
...SOUTHERN MIDDLE TENNESSEE...

CITY           SKY/WX    TMP DP  RH WIND       PRES   REMARKS
COLUMBIA       MOSUNNY   79  79 100 S10       29.91F
FAYETTEVILLE   MOSUNNY   79  66  65 S25G33    29.97S
MCMINNVILLE    MOSUNNY   81  66  61 S7        29.99F
MURFREESBORO   PTSUNNY   81  65  58 S18G31    29.94F
SHELBYVILLE    MOSUNNY   81  68  65 SE13      29.96F
TULLAHOMA      PTSUNNY   77  63  61 S16       30.00S
WINCHESTER     CLOUDY    77  66  69 S15       30.01S
$$


...KEY TO REMARKS...
VSB - VISIBILITY IN MILES
WCI - WIND CHILL INDEX
HX  - HEAT INDEX




USA.gov is the U.S. government's official web portal to all federal, state and local government web resources and services.